Location: Unspecified
(49.8670°N, 0.0000°E)
Time: 15:31:24
(UTC+00:00)

Vanguard 1 - Visible Passes

Search period start: 16 June 2019 00:00
Search period end: 26 June 2019 00:00
Orbit: 654 x 3829 km, 34.2° (Epoch: 15 June)

Date Brightness Start Highest point End Pass type
(mag) Time Alt. Az. Time Alt. Az. Time Alt. Az.
17 Jun 13.2 01:53:35 10° S 01:59:39 13° SSE 02:04:38 10° SE visible
18 Jun 13.0 02:11:19 10° S 02:20:34 18° SSE 02:27:25 10° ESE visible
19 Jun 12.8 02:30:17 10° SSW 02:41:29 22° SSE 02:49:13 10° ESE visible
20 Jun 13.4 00:36:14 12° SSE 00:40:41 13° SE 00:46:24 10° ESE visible
20 Jun 12.6 02:49:55 10° SSW 03:02:25 27° SSE 03:10:35 10° ESE visible
21 Jun 13.2 00:55:08 14° S 01:01:33 18° SSE 01:09:46 10° ESE visible
21 Jun 12.5 03:10:01 10° SW 03:23:21 30° S 03:31:42 10° ESE visible
22 Jun 13.0 01:13:54 16° S 01:22:28 23° SSE 01:31:54 10° ESE visible
22 Jun 13.6 23:19:55 12° SE 23:21:17 12° SE 23:26:20 10° ESE visible
23 Jun 12.9 01:32:32 16° SSW 01:43:23 28° SSE 01:53:28 10° ESE visible
23 Jun 13.4 23:38:22 16° SSE 23:42:03 17° SE 23:51:06 10° ESE visible
24 Jun 12.7 01:50:56 14° SSW 02:04:19 32° SSE 02:14:43 10° ESE visible
24 Jun 13.2 23:56:33 19° S 00:02:51 22° SSE 00:13:44 10° ESE visible
25 Jun 12.6 02:09:06 11° SW 02:25:15 36° SSE 02:35:47 10° ESE visible
